Home > Time Zones > World Clock > Weather > India > Unnao > Past weeks

Flag for India Weather past 2 weeks in Unnao, Uttar Pradesh, India

Now
79 °F

Haze.


Feels Like: 81 °F
Forecast: 79 / 99 °F
Wind: 2 mph from North

Location: Lucknow / Amausi

Current Time: Apr 28, 2015 at 9:06:16 PM

Latest Report: Apr 28, 2015 at 8:30 PM


Visibility: 2 mi

Pressure: 29.71 "Hg

Humidity: 65%

Dew point: 66 °F

Location of UnnaoLocation

Historic Weather in Unnao — Graph

°F

Unnao temperature yesterday

Maximum temperature yesterday: 95 °F (at 1:30 PM)
Minimum temperature yesterday: 75 °F (at 5:30 AM)
Average temperature yesterday: 86 °F

Past Weeks' High & Low Weather Summary

 TemperatureHumidityPressure
High108 °F (Apr 21, 2:30 PM)100% (Apr 28, 8:00 AM)30.01 "Hg (Apr 28, 8:00 AM)
Low68 °F (Apr 13, 10:00 PM)13% (Apr 22, 2:00 PM)29.53 "Hg (Apr 18, 3:00 PM)
Average86 °F53%29.75 "Hg
* Reported Apr 13 6:30 PM — Apr 28 6:30 PM, Unnao, Weather by CustomWeather, © 2015

Note: Actual official high and low records may vary slightly from our data, if they occured in-between our weather recording intervals... More about our weather records

Advertising

Unnao weather history for previous 24 hours

 ConditionsComfort  
Time TempWeatherWind HumidityBarometerVisibility
6:30 PM
Tue, Apr 28
84 °FClear.3 mph58%29.68 "Hg4 mi
6:00 PM86 °FClear.5 mph55%29.65 "Hg4 mi
5:30 PM88 °FClear.6 mph52%29.65 "Hg4 mi
5:00 PM88 °FClear.6 mph52%29.65 "Hg4 mi
4:30 PM88 °FClear.9 mph52%29.68 "Hg4 mi
4:00 PM88 °FClear.12 mph52%29.68 "Hg4 mi
3:30 PM88 °FClear.12 mph55%29.68 "Hg4 mi
3:00 PM88 °FClear.14 mph55%29.71 "Hg4 mi
2:30 PM86 °FClear.14 mph59%29.71 "Hg4 mi
2:00 PM86 °FClear.12 mph55%29.74 "Hg4 mi
1:00 PM86 °FHaze.13 mph55%29.74 "Hg2 mi
12:30 PM84 °FScattered clouds.12 mph55%29.77 "Hg2 mi
12:00 PM84 °FScattered clouds.13 mph55%29.77 "Hg2 mi
11:30 AM82 °FScattered clouds.14 mph55%29.77 "Hg2 mi
11:00 AM82 °FBroken clouds.14 mph55%29.77 "Hg2 mi
10:30 AM81 °FBroken clouds.14 mph62%29.80 "Hg2 mi
10:00 AM77 °FBroken clouds.13 mph74%29.80 "Hg2 mi
9:30 AM73 °FMore clouds than sun.12 mph89%29.80 "Hg2 mi
9:00 AM73 °FFog.8 mph89%29.77 "Hg2 mi
8:30 AM70 °FFog.8 mph100%29.74 "Hg2 mi
8:00 AM68 °FFog.9 mph100%29.80 "Hg2 mi
6:30 AM79 °FThunderstorms. More clouds than sun.9 mph74%29.83 "Hg2 mi
6:00 AM77 °FThunderstorms. Partly cloudy.9 mph79%29.80 "Hg2 mi
5:30 AM79 °FPassing clouds.6 mph70%29.71 "Hg2 mi
5:00 AM77 °FPassing clouds.5 mph74%29.68 "Hg2 mi
4:00 AM79 °FHaze.5 mph70%29.68 "Hg2 mi
3:00 AM79 °FHaze.2 mph70%29.68 "Hg2 mi
2:00 AM75 °FHaze.7 mph78%29.68 "Hg3 mi
1:00 AM82 °FHaze.8 mph66%29.71 "Hg3 mi
12:00 AM82 °FHaze.5 mph62%29.74 "Hg3 mi
11:00 PM
Mon, Apr 27
84 °FHaze.7 mph58%29.74 "Hg3 mi
10:00 PM86 °FHaze.5 mph55%29.77 "Hg3 mi
9:00 PM86 °FHaze.5 mph55%29.77 "Hg3 mi
Weather by CustomWeather, © 2015

See weather overviewHow to use our weather pages